Powrót do katalogu

STARLINK-5093

AktywnyŁącznośćSSO
NORAD 56332·PAYLOAD·🇺🇸 United States

Wystrzelony Apr 27, 2023 z Vandenberg Space Force Base

Loading…

Następne Przeloty (najbliższe 24 godziny)

TLE

ŚwieżeSource: CelesTrak SupGP

Epoka: Sep 15, 2026, 03:11 UTC

1 56332C 23058R   26258.13312500  .00689950  00000+0  38259-1 0  2587
2 56332  97.2847 252.2507 0001582  84.0362 201.0775 15.13515577    13

Śledź STARLINK-5093 w czasie rzeczywistym z AllMySat

Download on the App Store